Location: Tauranga
(37.6860°S, 176.1670°E)
Time: 09:49:56
(UTC+13:00)

SL-16 R/B - Pass Details

Date: 24 January 2019
Orbit: 842 x 846 km, 71.0° (Epoch: 22 February)

Event Time Altitude Azimuth Distance (km) Brightness Sun altitude
Rises 20:53:25 0° 7° (N) 3,393 5.0 -4.2°
Reaches altitude 10° 20:56:06 10° 17° (NNE) 2,466 4.2 -4.6°
Maximum altitude 21:00:59 31° 77° (ENE) 1,465 3.0 -5.5°
Drops below altitude 10° 21:05:55 10° 137° (SE) 2,491 4.5 -6.3°
Sets 21:08:38 0° 146° (SSE) 3,434 5.3 -6.8°
